TimeEST,TemperatureF,Dew PointF,Humidity,Sea Level PressureIn,VisibilityMPH,Wind Direction,Wind SpeedMPH,Gust SpeedMPH,PrecipitationIn,Events,Conditions,WindDirDegrees,DateUTC
12:57 AM,71.1,66.0,84,29.65,6.0,SSW,21.9,32.2,N/A,,Haze,200,2013-11-27 05:57:00
1:57 AM,70.0,66.9,90,29.64,3.0,SSW,20.7,31.1,0.07,Rain,Light Rain,200,2013-11-27 06:57:00
2:31 AM,68.0,64.9,90,29.62,5.0,WSW,11.5,-,0.00,,Overcast,240,2013-11-27 07:31:00
2:57 AM,66.9,64.9,93,29.63,4.0,WSW,8.1,-,0.00,Rain,Light Rain,240,2013-11-27 07:57:00
3:27 AM,68.0,64.9,90,29.59,4.0,SSW,16.1,21.9,0.01,Rain,Light Rain,210,2013-11-27 08:27:00
3:57 AM,68.0,66.0,93,29.58,5.0,SSW,19.6,25.3,0.02,,Overcast,200,2013-11-27 08:57:00
4:13 AM,68.0,64.9,90,29.56,6.0,SSW,19.6,-,N/A,,Overcast,200,2013-11-27 09:13:00
4:57 AM,68.0,64.9,90,29.57,6.0,SSW,17.3,25.3,0.00,,Overcast,200,2013-11-27 09:57:00
5:57 AM,68.0,64.9,90,29.54,6.0,SSW,17.3,28.8,0.01,,Mostly Cloudy,200,2013-11-27 10:57:00
6:57 AM,68.0,64.9,90,29.52,8.0,South,16.1,-,N/A,,Overcast,190,2013-11-27 11:57:00
7:57 AM,69.1,66.0,90,29.48,7.0,South,17.3,24.2,0.00,Rain,Light Rain,190,2013-11-27 12:57:00
8:09 AM,69.1,66.0,90,29.45,2.5,South,12.7,21.9,0.07,Rain,Light Rain,190,2013-11-27 13:09:00
8:29 AM,68.0,66.0,93,29.46,0.8,SSW,16.1,24.2,0.31,Rain,Heavy Rain,210,2013-11-27 13:29:00
8:36 AM,68.0,64.9,90,29.46,0.8,SW,19.6,29.9,0.35,Rain,Rain,220,2013-11-27 13:36:00
8:38 AM,68.0,64.9,90,29.46,1.0,SW,19.6,31.1,0.36,Rain,Rain,220,2013-11-27 13:38:00
8:46 AM,68.0,64.9,90,29.46,3.0,SW,18.4,31.1,0.36,Rain,Light Rain,230,2013-11-27 13:46:00
8:57 AM,66.9,64.9,93,29.46,4.0,SW,16.1,27.6,0.36,,Overcast,230,2013-11-27 13:57:00
9:57 AM,64.9,63.0,93,29.48,4.0,SW,10.4,-,N/A,,Overcast,230,2013-11-27 14:57:00
10:04 AM,64.9,63.0,93,29.46,4.0,SW,8.1,-,N/A,,Overcast,230,2013-11-27 15:04:00
10:57 AM,64.9,62.1,90,29.47,9.0,WNW,5.8,-,0.00,Rain,Light Rain,300,2013-11-27 15:57:00
11:09 AM,64.0,62.1,93,29.49,1.8,WNW,9.2,-,0.03,Rain,Heavy Rain,290,2013-11-27 16:09:00
11:16 AM,62.1,60.1,93,29.50,4.0,WNW,10.4,-,0.03,Rain,Light Rain,300,2013-11-27 16:16:00
11:57 AM,57.0,55.0,93,29.47,6.0,NNW,10.4,-,0.03,Rain,Light Rain,340,2013-11-27 16:57:00
12:04 PM,57.0,54.0,89,29.46,10.0,NNW,10.4,18.4,0.00,Rain,Light Rain,330,2013-11-27 17:04:00
12:57 PM,53.1,51.1,93,29.52,10.0,WNW,10.4,-,0.00,Rain,Light Rain,300,2013-11-27 17:57:00
1:07 PM,53.1,50.0,89,29.52,10.0,WNW,10.4,18.4,0.00,,Overcast,300,2013-11-27 18:07:00
1:57 PM,51.1,48.0,89,29.58,10.0,NW,13.8,24.2,0.00,,Overcast,320,2013-11-27 18:57:00
2:04 PM,52.0,48.0,86,29.57,10.0,NNW,9.2,24.2,N/A,,Overcast,330,2013-11-27 19:04:00
2:35 PM,51.1,46.0,83,29.60,10.0,NW,12.7,24.2,N/A,,Overcast,320,2013-11-27 19:35:00
2:57 PM,51.1,45.0,80,29.66,10.0,NW,11.5,20.7,N/A,,Overcast,310,2013-11-27 19:57:00
3:14 PM,46.9,43.0,86,29.67,1.8,WNW,18.4,28.8,0.00,Rain,Light Rain,300,2013-11-27 20:14:00
3:24 PM,46.0,42.1,86,29.68,2.0,NW,15.0,26.5,0.00,Rain,Light Rain,320,2013-11-27 20:24:00
3:46 PM,45.0,42.1,90,29.72,3.0,WNW,18.4,27.6,0.00,Rain,Light Rain,300,2013-11-27 20:46:00
3:57 PM,45.0,41.0,86,29.73,5.0,NW,16.1,28.8,0.00,Rain,Light Rain,310,2013-11-27 20:57:00
4:18 PM,44.1,41.0,89,29.75,4.0,WNW,15.0,23.0,0.00,Rain,Light Rain,300,2013-11-27 21:18:00
4:57 PM,42.1,39.0,89,29.80,10.0,NW,11.5,26.5,0.00,,Overcast,310,2013-11-27 21:57:00
5:57 PM,42.1,39.0,89,29.86,5.0,NW,10.4,23.0,0.00,Rain,Light Rain,320,2013-11-27 22:57:00
6:43 PM,41.0,37.0,86,29.91,10.0,NW,11.5,21.9,0.00,,Overcast,320,2013-11-27 23:43:00
6:57 PM,41.0,37.9,89,29.93,9.0,NW,11.5,20.7,0.00,,Overcast,320,2013-11-27 23:57:00
7:20 PM,41.0,37.0,86,29.93,6.0,NW,15.0,24.2,0.00,Rain,Light Rain,320,2013-11-28 00:20:00
7:34 PM,39.9,37.0,89,29.95,7.0,NW,13.8,24.2,0.00,Rain,Light Rain,310,2013-11-28 00:34:00
7:54 PM,39.2,35.6,87,29.96,7.0,NW,12.7,24.2,0.00,Rain,Light Rain,320,2013-11-28 00:54:00
7:57 PM,39.9,36.0,86,29.98,7.0,NW,16.1,26.5,0.00,Rain,Light Rain,310,2013-11-28 00:57:00
8:48 PM,39.0,34.0,82,30.00,10.0,NW,13.8,23.0,0.00,,Overcast,320,2013-11-28 01:48:00
8:57 PM,39.0,33.1,79,30.02,10.0,NW,12.7,19.6,0.00,,Overcast,320,2013-11-28 01:57:00
9:57 PM,39.0,32.0,76,30.07,10.0,NW,8.1,18.4,N/A,,Mostly Cloudy,320,2013-11-28 02:57:00
10:57 PM,37.0,26.1,65,30.11,10.0,NW,10.4,20.7,N/A,,Mostly Cloudy,320,2013-11-28 03:57:00
11:57 PM,35.1,24.1,64,30.15,10.0,NW,8.1,-,N/A,,Clear,310,2013-11-28 04:57:00